"Pseudo-MPEC" for C34RM02

Created 2020 Sep 21 14:07:05 UT using Find_Orb

Click here for an explanation of pseudo-MPECs

 
 Astrometry: 
     C34RM02  C2020 09 10.19832 22 01 40.76 +03 23 24.4    ~9A5b 21.1 GVNEOCPG96
     C34RM02  C2020 09 10.20303 22 01 35.68 +03 25 34.8    ~9A5b 20.9 GVNEOCPG96
     C34RM02  C2020 09 10.20774 22 01 30.37 +03 27 47.3    ~9A5b 20.2 GVNEOCPG96
     C34RM02  C2020 09 10.21245 22 01 25.34 +03 29 57.2    ~9A5b       VNEOCPG96
     C34RM02  C2020 09 10.31537 21 59 32.47 +04 17 40.5    ~9A87 20.7 GVNEOCPI52
     C34RM02  C2020 09 10.31791 21 59 29.69 +04 18 50.7    ~9A87 20.8 GVNEOCPI52
     C34RM02  C2020 09 10.32045 21 59 26.91 +04 20 01.8    ~9A87 20.2 GVNEOCPI52
     C34RM02  C2020 09 10.32299 21 59 24.13 +04 21 12.0    ~9A87 20.3 GVNEOCPI52
     C34RM02  C2020 09 11.17326 21 44 47.28 +10 48 21.1    ~9B4b 21.1 GVNEOCPG96
     C34RM02  C2020 09 11.17396 21 44 46.49 +10 48 39.8    ~9B4b 21.0 GVNEOCPG96
     C34RM02  C2020 09 11.17465 21 44 45.74 +10 48 57.7    ~9B4b 20.2 GVNEOCPG96
     C34RM02  C2020 09 11PoN-CM4Dsc!RytaZw'*#l;`8N:VV^a2HI9]G2FHyvZ3ta=Q-rG/XF51

Station data:
(F51) Pan-STARRS 1, Haleakala  (N20.707235 W156.255910)  US/Hawaii.
   Observers N. Primak, A. Schultz, S. Watters, J. Thiel, T. Goggia. Measurer
   PS1 Science Consortium. 1.8-m Ritchey-Chrétien + CCD.
(G96) Mt. Lemmon Survey  (N32.442754 W110.788720)  US/Arizona.  Observers T.
   A. Pruyne, B. M. Africano, E. J. Christensen, G. A. Farneth, D. C. Fuls,
   A. R. Gibbs, A. D. Grauer, H. Gröller, J. A. Johnson, R. A. Kowalski, S.
   M. Larson, G. J. Leonard, D. Rankin, R. L. Seaman, F. C. Shelly. 1.5-m
   reflector + 10K CCD.
(I52) Steward Observatory, Mt. Lemmon Station  (N32.442547 W110.788920)
   US/Arizona.  Observers T. A. Pruyne, B. M. Africano, E. J. Christensen, G.
   A. Farneth, D. C. Fuls, A. R. Gibbs, A. D. Grauer, H. Gröller, J. A.
   Johnson, R. A. Kowalski, S. M. Larson, G. J. Leonard, D. Rankin, R. L.
   Seaman, F. C. Shelly. 1.0-m reflector + CCD.

Orbital elements:  C34RM02
   Perihelion 2020 Oct 14.667998 +/- 0.155 TT = 16:01:55 (JD 2459137.167998)
Epoch 2020 Sep 11.0 TT = JDT 2459103.5   Earth MOID: 0.0563   Ma: 0.0397
M 339.85040240 +/- 0.18             (J2000 ecliptic)          AutoNEOCP
n   0.59847923 +/- 0.00296          Peri.   37.88849 +/- 0.14
a   1.39455824 +/- 0.00459          Node   345.47278 +/- 0.0023
e   0.2700625 +/- 0.00222           Incl.   28.31018 +/- 0.10
P   1.65/601.51d           H 25.9   G  0.15   U  8.8  
q 1.01794033 +/- 0.000302    Q 1.77117616 +/- 0.00896
From 12 observations 2020 Sept. 10-11 (29.0 hr); mean residual 0".53
Residuals in arcseconds: 
200910 G96  .13-  .81+    200910 I52  .08+  .36-    200911 G96  .15+  .45+    
200910 G96  .98+  .09-    200910 I52  .02+  .69-    200911 G96  .30-  .43+    
200910 G96  1.3-  1.1+    200910 I52  .05-  .11-    200911 G96  .32-  .13-    
200910 G96  .63+  .25-    200910 I52  .13-  .42-    200911 F51  .21+  .22-    

Ephemerides (geocentric):
Date (UTC) HH   RA              Dec         delta   r     elong  mag " sig PA
---- -- -- --  -------------   -----------  ------ ------ -----  --- ---- ---
2020 09 21 14  19 22 44.471   +50 15 48.29  .11958 1.0380 103.4 23.9 10.3 134
2020 09 21 15  19 22 21.337   +50 19 06.06  .11990 1.0380 103.3 23.9 10.3 134
2020 09 21 16  19 21 58.282   +50 22 22.47  .12022 1.0379 103.2 23.9 10.3 134
2020 09 21 17  19 21 35.305   +50 25 37.53  .12054 1.0378 103.1 23.9 10.3 133
2020 09 21 18  19 21 12.406   +50 28 51.26  .12086 1.0377 103.0 23.9 10.3 133
2020 09 21 19  19 20 49.586   +50 32 03.66  .12118 1.0377 102.9 23.9 10.4 133
2020 09 21 20  19 20 26.843   +50 35 14.75  .12150 1.0376 102.9 23.9 10.4 133
2020 09 21 21  19 20 04.178   +50 38 24.53  .12182 1.0375 102.8 23.9 10.4 133
2020 09 21 22  19 19 41.590   +50 41 33.02  .12214 1.0375 102.7 23.9 10.4 133
2020 09 21 23  19 19 19.079   +50 44 40.24  .12247 1.0374 102.6 23.9 10.5 133
2020 09 22 00  19 18 56.645   +50 47 46.18  .12279 1.0373 102.5 23.9 10.5 133
2020 09 22 01  19 18 34.287   +50 50 50.86  .12311 1.0373 102.4 24.0 10.5 133
2020 09 22 02  19 18 12.006   +50 53 54.30  .12343 1.0372 102.4 24.0 10.5 133
2020 09 22 03  19 17 49.800   +50 56 56.50  .12375 1.0371 102.3 24.0 10.5 133
2020 09 22 04  19 17 27.670   +50 59 57.47  .12408 1.0370 102.2 24.0 10.6 133
2020 09 22 05  19 17 05.616   +51 02 57.23  .12440 1.0370 102.1 24.0 10.6 132
2020 09 22 06  19 16 43.637   +51 05 55.78  .12472 1.0369 102.0 24.0 10.6 132
2020 09 22 07  19 16 21.733   +51 08 53.13  .12505 1.0368 102.0 24.0 10.6 132
2020 09 22 08  19 15 59.904   +51 11 49.30  .12537 1.0368 101.9 24.0 10.6 132
2020 09 22 09  19 15 38.149   +51 14 44.29  .12569 1.0367 101.8 24.0 10.7 132
2020 09 22 10  19 15 16.469   +51 17 38.12  .12602 1.0366 101.7 24.0 10.7 132
2020 09 22 11  19 14 54.862   +51 20 30.79  .12634 1.0366 101.7 24.0 10.7 132
2020 09 22 12  19 14 33.329   +51 23 22.32  .12666 1.0365 101.6 24.0 10.7 132
2020 09 22 13  19 14 11.870   +51 26 12.71  .12699 1.0364 101.5 24.0 10.7 132
2020 09 22 14  19 13 50.483   +51 29 01.97  .12731 1.0364 101.4 24.0 10.7 132
2020 09 22 15  19 13 29.170   +51 31 50.11  .12764 1.0363 101.4 24.1 10.8 132
2020 09 22 16  19 13 07.930   +51 34 37.15  .12796 1.0362 101.3 24.1 10.8 132
2020 09 22 17  19 12 46.761   +51 37 23.09  .12829 1.0362 101.2 24.1 10.8 132
2020 09 22 18  19 12 25.666   +51 40 07.94  .12861 1.0361 101.1 24.1 10.8 131
2020 09 22 19  19 12 04.642   +51 42 51.71  .12894 1.0360 101.1 24.1 10.8 131
2020 09 22 20  19 11 43.689   +51 45 34.41  .12926 1.0360 101.0 24.1 10.9 131
2020 09 22 21  19 11 22.808   +51 48 16.04  .12959 1.0359 100.9 24.1 10.9 131
2020 09 22 22  19 11 01.999   +51 50 56.63  .12991 1.0358 100.8 24.1 10.9 131
2020 09 22 23  19 10 41.260   +51 53 36.16  .13024 1.0358 100.8 24.1 10.9 131
2020 09 23 00  19 10 20.592   +51 56 14.67  .13056 1.0357 100.7 24.1 10.9 131
2020 09 23 01  19 09 59.994   +51 58 52.14  .13089 1.0356 100.6 24.1 10.9 131
2020 09 23 02  19 09 39.466   +52 01 28.60  .13122 1.0356 100.6 24.1 11.0 131
2020 09 23 03  19 09 19.008   +52 04 04.05  .13154 1.0355 100.5 24.1 11.0 131
2020 09 23 04  19 08 58.620   +52 06 38.49  .13187 1.0354 100.4 24.1 11.0 131
2020 09 23 05  19 08 38.302   +52 09 11.94  .13220 1.0354 100.3 24.2 11.0 131
2020 09 23 06  19 08 18.052   +52 11 44.41  .13252 1.0353 100.3 24.2 11.0 131
2020 09 23 07  19 07 57.872   +52 14 15.90  .13285 1.0352 100.2 24.2 11.0 130
2020 09 23 08  19 07 37.760   +52 16 46.42  .13318 1.0352 100.1 24.2 11.1 130
2020 09 23 09  19 07 17.716   +52 19 15.98  .13350 1.0351 100.1 24.2 11.1 130
2020 09 23 10  19 06 57.741   +52 21 44.59  .13383 1.0350 100.0 24.2 11.1 130
2020 09 23 11  19 06 37.833   +52 24 12.25  .13416 1.0350  99.9 24.2 11.1 130
2020 09 23 12  19 06 17.993   +52 26 38.97  .13448 1.0349  99.9 24.2 11.1 130
2020 09 23 13  19 05 58.221   +52 29 04.77  .13481 1.0348  99.8 24.2 11.1 130